Location: Little Arabia
(41.4620°N, 81.7687°W)
Time: 20:54:09
(UTC+00:00)

USA 308 - Pass Details

Date: 29 October 2020
Orbit: 571 x 578 km, 54.0° (Epoch: 30 November)

Event Time Altitude Azimuth Distance (km) Brightness Sun altitude
Rises 23:30:43 0° 312° (NW) 2,787 7.0 -12.8°
Reaches altitude 10° 23:33:06 10° 321° (NW) 1,884 6.0 -13.3°
Maximum altitude 23:37:07 38° 30° (NNE) 884 3.6 -14.0°
Enters shadow 23:39:03 24° 81° (E) 1,191 3.9 -14.4°
